THOR ALTAIR DEB

基本信息
目录编号:
2177
目录名称:
THOR ALTAIR DEB
国际标识:
1966-026D
轨道中心:
EARTH
物体状态:
在轨
发射日期:
1966-03-31 UTC
轨道信息
数据来源: 国际轨道数据
星历时间: 2026-09-04T06:42:18+0800
半长轴: 7003.892km
偏心率: 0.0127252
轨道倾角: 98.980°
近地点辐角: 101.960°
升交点赤经: 248.131°
平近点角: 259.590°
近地点: 536.629km
远地点: 714.881km
周期: 97.223分钟
每日圈数: 14.811315
详细信息
发射场:
AFWTR
轨道高度:
LEO
数据来源:
AOE Integration Group
参考系:
TEME
时间系统:
UTC
历元类型:
SGP4
2D轨道图
3D轨道图
轨道高度分析图
轨道倾角分析图
轨道综合分析图
查看轨道综合分析图